GFSSW_sfc_dewp_159.txt.gz
Dewpoint
60 60 61 61 62 62 62 62 61 60 59 58 57 58 58 59 59 48 44 55 60 63 60 49 44 40 36 36 39 35 26 21 23 36 35 37 36 36 36 38 41 42 45 50 57
60 59 60 61 61 61 61 61 60 59 57 56 56 56 57 58 53 44 59 61 63 63 48 45 44 42 35 34 36 31 23 22 35 37 35 36 36 35 34 37 40 42 47 51 54
59 59 59 60 60 60 60 60 59 59 58 57 56 56 56 57 45 47 59 60 62 62 53 46 43 41 35 32 32 32 26 31 39 43 38 37 37 38 34 34 38 39 41 44 43
58 59 59 59 60 60 60 60 59 59 58 57 56 55 56 54 13 54 58 59 61 60 53 42 41 38 33 31 33 31 31 36 42 43 40 39 39 38 38 37 39 39 39 39 39
58 57 58 58 59 60 60 60 59 59 59 58 57 56 54 40 42 52 56 55 54 55 47 41 38 36 32 28 36 36 34 41 43 42 41 42 40 38 37 38 38 40 40 40 40
57 57 57 58 58 59 60 60 59 59 59 58 57 57 50 35 47 46 47 50 53 50 44 40 37 36 34 31 34 38 35 39 42 41 41 40 39 37 36 37 37 38 39 41 38
56 57 57 57 58 58 59 59 59 59 59 59 57 54 45 40 45 46 46 49 53 52 44 44 48 40 35 35 41 40 35 36 39 39 38 36 31 35 37 36 36 37 37 36 36
56 56 57 57 57 57 57 57 58 58 58 59 57 51 43 48 46 44 46 45 51 52 53 51 50 47 43 42 38 36 32 31 32 38 37 29 22 23 28 34 33 34 36 35 33
56 56 56 56 57 57 57 57 57 58 58 57 51 47 43 50 44 45 44 44 52 52 52 52 51 43 42 38 35 34 26 26 32 35 36 30 25 30 35 33 33 33 33 33 33
56 55 56 56 56 56 56 56 57 56 55 53 51 44 45 42 45 45 46 44 50 52 49 46 43 40 37 35 29 30 28 25 26 35 34 35 31 32 34 36 35 35 36 35 33
56 56 55 56 56 55 55 52 47 44 48 44 44 42 43 45 47 45 45 45 48 48 42 44 37 36 38 35 30 30 28 25 29 36 34 34 34 34 34 33 34 34 34 33 33
54 56 55 56 55 55 51 45 44 44 42 46 46 46 45 45 42 43 45 44 45 41 40 40 36 36 36 36 34 31 29 28 32 36 34 34 33 34 33 32 31 31 32 32 33
52 55 55 55 55 53 48 45 47 45 39 43 44 44 44 45 40 42 44 45 41 38 38 36 34 37 35 34 31 31 29 29 28 33 33 31 26 27 29 33 32 31 31 32 35
51 53 55 55 52 50 47 48 49 46 33 38 42 42 44 44 39 44 44 41 39 38 37 36 35 35 34 34 34 32 33 33 33 32 25 29 22 27 25 25 28 29 32 34 35
50 51 55 56 51 48 48 50 48 45 21 31 40 44 45 37 40 42 43 41 37 35 36 34 34 34 34 33 35 33 35 33 34 33 29 28 25 26 27 24 27 30 34 34 34
51 49 54 53 52 50 49 47 45 32 20 34 40 41 40 40 39 44 41 42 41 37 35 36 40 37 35 36 34 36 34 33 33 30 21 27 24 22 23 24 25 32 34 33 33
49 49 53 53 48 50 48 45 31 26 31 33 36 40 37 37 40 40 38 37 35 33 33 36 36 39 39 36 38 35 33 26 24 25 19 24 26 23 23 24 30 32 33 33 32
49 50 53 52 51 49 47 37 27 26 28 33 35 37 35 37 37 38 37 35 36 36 33 31 29 36 38 36 35 35 33 24 17 21 22 25 22 22 26 30 30 32 33 33 31
49 52 52 50 51 49 41 30 29 25 29 31 33 33 34 36 37 36 35 33 34 35 31 31 30 36 38 36 36 36 33 33 27 22 22 23 23 21 27 30 32 32 32 31 31
46 50 48 51 50 47 36 31 32 31 31 31 25 30 28 34 34 32 34 34 34 35 33 30 29 34 36 37 35 35 34 28 26 12 14 18 19 18 23 25 30 32 31 31 31
46 42 48 50 48 41 31 32 33 32 31 29 29 29 29 30 32 33 33 31 34 34 34 30 30 33 35 34 31 32 31 31 31 26 18 17 16 21 26 27 28 31 32 32 30
40 32 47 50 37 33 32 33 34 29 32 29 30 28 30 30 29 31 30 28 33 34 34 33 31 30 32 33 35 32 30 31 23 22 24 23 20 24 27 27 29 29 31 31 30
33 36 45 47 30 31 34 34 31 31 30 29 28 29 29 30 27 30 30 31 32 34 32 34 31 24 27 32 33 32 32 31 30 28 25 22 20 24 27 28 29 29 31 32 31
35 31 34 39 37 34 33 32 30 33 32 30 30 30 29 30 30 28 30 32 34 36 40 38 35 26 19 23 29 29 31 32 30 23 25 25 25 25 27 27 26 27 31 32 31
33 30 32 29 31 35 34 33 29 30 32 31 29 29 28 25 29 28 32 31 34 40 37 36 30 30 29 26 25 26 27 27 28 29 26 25 25 27 28 28 28 28 29 30 32
32 32 34 32 35 34 34 31 30 30 30 28 27 29 29 28 28 29 31 30 29 34 34 34 27 28 23 25 24 23 24 25 26 25 25 25 25 27 26 26 24 25 26 26 29
38 39 36 33 33 33 32 32 30 31 31 30 29 29 28 31 31 33 33 32 33 32 33 32 27 20 14 23 21 14 22 24 24 25 23 20 19 21 20 21 22 23 26 27 26

GFSSW_sfc_dewp_162.txt.gz
Dewpoint
60 60 61 62 62 62 62 62 61 60 59 58 58 57 57 58 58 47 43 55 59 62 59 46 45 44 36 35 38 33 25 18 20 36 36 38 36 36 37 40 41 44 46 48 57
59 59 60 61 62 62 62 62 61 60 59 56 55 55 55 57 52 44 57 59 62 62 43 44 42 43 34 32 34 29 23 22 33 36 36 37 36 35 37 39 41 46 51 56 58
58 59 59 60 61 61 61 61 60 59 58 56 55 55 54 55 42 39 59 58 61 61 53 47 42 41 34 32 32 31 25 30 38 43 37 36 36 35 36 35 39 44 49 52 55
58 58 59 59 60 60 60 60 60 59 58 57 56 55 55 53 14 54 59 58 60 59 54 43 41 37 32 30 33 30 34 38 42 43 40 38 38 37 36 36 38 42 45 44 44
58 57 58 58 59 59 60 60 59 59 58 58 56 55 53 40 39 52 55 54 52 55 49 41 38 35 30 29 35 34 34 42 43 42 41 41 40 38 38 37 39 40 40 39 39
57 57 57 57 58 58 59 60 59 59 59 58 57 55 49 32 47 46 46 50 53 51 45 42 38 37 33 31 32 38 37 39 42 41 40 39 39 38 37 38 37 38 39 40 39
57 57 57 57 58 58 58 60 59 59 59 58 57 53 45 35 45 46 46 48 52 52 48 42 47 38 36 37 41 38 34 35 38 39 38 36 31 35 37 37 35 36 38 37 36
57 57 56 57 57 58 58 58 59 59 59 58 57 49 40 47 46 43 45 45 50 52 53 51 51 44 41 40 37 34 31 29 31 38 37 28 24 23 28 30 33 35 36 36 35
56 57 56 56 56 57 57 57 57 58 58 57 50 45 41 50 43 44 43 44 52 52 51 51 49 42 41 36 33 34 23 27 27 37 35 29 22 25 35 32 31 33 33 34 33
55 56 56 56 56 57 56 57 57 57 55 53 51 44 45 42 45 45 45 44 50 50 48 46 42 40 38 34 25 29 29 27 23 33 35 33 31 31 34 35 34 34 34 35 35
55 54 56 55 55 56 55 53 49 48 51 44 44 42 43 45 47 44 44 46 48 46 39 42 37 36 37 36 30 30 28 26 25 35 33 33 34 35 35 35 34 35 35 35 34
54 53 55 55 55 55 53 48 45 46 43 46 46 44 45 45 42 43 45 44 44 39 40 39 32 36 38 38 35 33 29 28 32 35 33 32 33 34 34 34 33 33 33 34 37
52 53 53 56 55 53 50 46 48 45 39 43 45 45 43 44 41 41 44 44 41 37 38 34 33 37 35 33 32 31 29 28 29 33 32 28 24 25 28 33 33 32 32 32 37
52 52 54 55 52 50 48 49 50 45 32 35 42 43 44 43 38 43 45 42 39 37 36 36 36 36 35 33 32 30 33 32 32 31 25 29 17 26 26 25 31 33 33 35 35
51 51 52 55 49 48 48 50 49 44 23 32 41 43 44 39 39 41 44 40 36 38 36 32 34 33 33 33 34 32 34 33 33 32 28 27 23 22 27 25 26 32 34 34 34
50 51 51 51 53 48 49 49 46 31 22 34 41 41 40 39 40 42 41 41 39 35 35 34 39 36 34 36 34 35 34 33 33 30 22 28 21 15 23 24 28 33 34 34 33
49 51 51 51 47 51 49 46 32 27 31 33 36 40 36 36 40 40 38 37 34 31 31 35 35 38 37 35 36 34 30 24 18 23 20 25 25 22 23 24 29 33 33 33 32
47 50 50 50 51 51 48 38 27 28 28 35 36 35 33 35 36 39 36 34 36 34 32 29 28 36 38 35 34 33 30 23 13 19 21 26 24 22 26 29 30 33 33 32 31
47 46 47 48 51 51 44 31 30 27 30 33 35 32 32 35 36 37 34 31 34 36 28 28 27 36 38 37 36 35 32 31 26 19 20 22 23 22 29 30 32 33 32 31 31
44 43 43 48 52 49 38 32 33 30 33 33 29 34 31 33 34 33 34 34 34 36 35 31 28 33 36 36 35 35 34 29 28 12 13 18 19 17 21 25 31 31 31 31 31
42 37 44 47 50 43 32 33 32 31 33 29 29 30 31 31 33 32 34 32 34 35 34 29 31 33 35 35 32 32 31 31 29 24 18 16 16 19 26 27 31 32 32 31 31
40 32 43 50 37 35 32 33 34 31 32 30 30 29 29 33 32 32 32 28 34 34 34 33 33 31 33 33 35 32 31 31 24 21 23 23 19 25 26 28 31 31 32 32 32
33 35 45 49 32 32 33 35 31 31 29 28 27 29 30 31 30 31 31 33 34 34 34 34 33 26 29 33 32 34 33 31 29 28 25 21 19 26 27 28 29 30 31 31 32
35 31 35 42 36 33 32 32 31 33 30 30 29 30 30 29 30 29 29 31 35 35 40 36 34 26 20 23 29 29 30 31 30 25 25 24 24 26 27 27 26 28 29 31 32
33 31 33 29 31 35 34 33 31 32 32 30 28 29 29 25 27 28 31 32 35 40 38 37 31 31 27 27 28 28 28 28 29 29 26 25 25 27 28 28 29 29 29 28 29
32 32 33 32 35 35 34 32 31 30 28 27 27 29 29 27 26 29 30 30 31 34 36 37 30 33 29 28 24 23 25 29 29 28 29 28 27 28 29 29 27 26 25 24 24
38 40 35 35 34 34 32 33 30 30 30 29 30 28 29 28 31 33 32 32 33 33 33 34 26 23 15 23 21 15 21 24 25 25 25 23 25 26 24 23 22 22 23 25 26

GFSSW_sfc_dewp_165.txt.gz
Dewpoint
60 60 62 62 62 62 62 62 61 61 60 59 58 57 55 57 57 44 40 53 58 62 58 44 42 43 35 34 37 32 23 18 25 36 37 37 35 37 38 40 41 45 51 51 57
59 59 60 61 62 62 62 62 61 61 60 58 56 55 55 55 50 43 53 58 61 62 42 42 40 41 31 32 34 25 22 20 27 39 37 37 35 35 39 40 44 48 53 57 59
59 59 59 59 62 62 62 62 61 61 59 57 55 55 55 55 41 29 59 57 60 61 54 46 42 40 30 32 33 30 22 26 36 42 42 37 36 35 38 40 42 46 52 56 57
58 58 59 59 60 62 62 61 60 59 58 57 56 55 55 51 19 53 59 59 59 58 54 43 40 35 30 29 33 29 34 38 41 42 40 37 37 35 36 38 39 46 52 53 55
58 58 58 59 59 60 61 60 60 59 58 57 56 54 51 42 36 50 57 54 52 56 48 40 38 35 28 28 33 32 33 42 42 41 41 41 39 38 40 37 40 46 47 48 51
57 58 58 58 59 59 60 60 59 59 58 58 57 55 48 26 44 47 46 49 53 51 46 42 38 37 32 31 31 36 36 39 41 40 39 38 39 38 39 38 38 41 41 41 40
56 57 57 57 58 58 58 59 59 59 58 58 57 51 45 34 44 46 46 48 52 52 44 41 47 38 34 37 40 37 33 34 38 38 37 35 32 35 37 37 35 37 39 39 39
55 56 57 56 57 58 58 58 59 59 59 58 57 49 35 45 46 44 45 44 48 52 52 51 50 41 38 38 37 33 31 27 30 38 37 32 30 25 28 30 34 34 37 37 37
55 55 56 57 56 57 57 57 58 58 58 58 50 44 39 49 43 44 43 44 51 51 51 51 46 41 39 34 30 32 23 28 28 35 34 30 27 24 33 33 31 30 34 35 34
55 55 55 56 56 56 56 57 57 57 55 52 51 45 44 42 44 44 44 44 50 49 47 46 42 39 38 30 20 27 26 27 24 29 34 32 30 30 33 35 34 35 34 33 34
53 54 54 56 56 56 55 54 50 48 51 46 46 40 43 45 46 43 44 46 49 44 39 41 37 34 36 33 30 29 26 22 24 27 33 33 33 33 34 35 35 35 35 35 35
52 54 54 54 57 55 54 49 48 47 44 47 46 44 44 45 41 43 44 44 44 38 40 37 34 37 38 36 34 33 29 28 31 35 33 32 31 33 33 33 33 32 33 35 37
52 52 54 54 54 55 50 49 49 45 41 44 45 44 43 44 40 40 44 44 39 37 37 34 29 34 35 36 35 32 29 29 28 32 31 27 23 24 26 33 33 34 33 34 37
51 53 54 54 50 52 49 51 50 49 35 35 42 43 44 42 38 43 45 41 39 35 37 35 35 33 34 32 33 30 32 30 32 29 24 29 18 25 24 26 28 33 32 33 37
50 52 53 53 48 49 49 52 51 46 24 33 42 44 44 38 39 41 44 39 35 36 36 31 35 34 33 33 33 30 34 32 32 30 27 26 24 20 25 23 24 32 34 35 35
49 51 52 52 49 50 51 50 46 32 23 33 41 41 40 39 40 41 41 40 38 36 33 32 38 35 34 35 34 35 33 32 31 29 21 27 19 12 18 24 28 33 34 34 33
49 50 50 50 46 48 50 46 32 26 32 33 35 39 37 36 40 38 39 37 34 30 30 33 33 37 37 34 35 33 29 19 20 23 18 25 24 21 21 25 26 32 33 33 31
48 49 49 49 50 49 49 39 27 30 27 35 35 37 33 36 36 38 37 34 36 31 29 28 27 35 37 34 32 33 27 21 12 17 18 26 24 22 26 30 32 33 33 32 30
47 45 45 49 50 49 44 31 30 30 31 34 35 33 32 34 34 35 34 33 34 35 26 25 25 34 36 36 34 33 31 28 25 17 19 22 23 23 28 30 32 32 32 31 31
42 43 41 44 50 45 32 33 33 31 34 34 29 32 30 33 31 33 33 32 33 36 35 30 26 32 35 36 35 34 33 29 24 13 12 18 19 18 20 25 31 31 31 31 31
40 35 40 48 49 40 29 32 34 31 34 29 30 32 30 32 32 32 32 32 33 35 35 31 29 33 35 34 32 32 32 31 28 24 17 14 16 20 25 27 31 31 32 31 31
39 30 41 46 34 32 32 32 35 32 32 30 30 31 31 32 32 30 31 30 34 34 33 32 31 28 31 33 34 32 31 31 25 24 23 22 19 24 25 29 32 32 32 32 32
33 33 42 43 28 31 32 34 35 33 29 29 28 30 32 31 30 32 33 34 34 34 34 34 30 24 30 34 32 33 32 32 28 28 25 21 19 26 28 29 30 31 31 32 32
35 29 33 38 36 32 32 32 32 34 30 29 29 32 31 30 30 31 31 31 35 34 40 37 33 24 21 24 30 33 34 32 31 29 26 24 22 24 26 27 28 29 30 30 31
34 30 30 29 31 33 34 34 32 32 33 30 29 30 29 30 28 28 31 32 35 39 37 36 31 30 27 27 28 28 31 33 31 31 27 26 25 26 27 29 27 28 29 28 28
31 31 33 32 33 33 35 33 31 32 29 28 27 29 29 28 28 28 30 30 32 35 36 36 31 32 26 29 24 23 27 28 29 30 30 30 29 28 29 30 29 28 27 24 22
36 38 36 34 33 33 32 34 30 31 30 29 29 29 28 29 31 32 32 32 34 34 35 34 29 28 24 26 27 21 21 25 27 28 29 27 28 30 28 27 27 25 22 22 24

GFSSW_sfc_dewp_168.txt.gz
Dewpoint
59 60 60 61 61 61 61 62 62 61 60 59 58 56 55 56 55 40 36 50 57 62 57 40 38 41 34 34 35 30 21 21 26 36 39 38 36 39 40 43 44 47 50 51 58
59 59 60 60 61 61 61 61 62 61 60 59 57 55 53 55 48 41 50 58 61 62 43 40 36 40 28 31 33 23 19 18 21 38 39 37 36 36 40 41 43 46 52 56 59
57 59 59 59 60 61 61 61 61 61 60 58 56 55 53 53 32 28 59 57 60 60 53 45 41 38 27 31 32 29 16 22 35 42 43 37 36 35 39 40 42 45 51 56 57
57 58 58 59 59 61 62 61 61 61 60 57 55 55 54 50 24 51 60 58 59 58 50 42 38 32 27 26 33 32 32 35 41 42 39 37 38 35 40 39 39 45 54 55 56
55 57 58 58 59 60 61 61 61 60 59 57 56 54 50 41 29 47 57 53 52 55 45 38 35 32 23 27 33 31 32 41 41 41 40 40 39 39 39 38 40 49 52 54 56
55 56 58 58 58 59 60 61 60 59 58 58 56 54 45 22 40 47 45 51 53 51 46 41 36 35 31 30 29 35 36 37 41 40 39 39 40 40 39 38 42 47 49 50 53
54 56 57 57 58 58 58 60 59 59 58 57 56 49 44 28 44 46 45 48 52 52 43 43 45 36 33 34 40 36 33 33 38 39 39 34 33 36 36 36 38 41 42 42 42
55 55 55 57 57 58 58 58 59 59 58 58 56 48 33 44 45 43 45 45 47 52 52 49 49 41 36 38 35 32 31 26 28 38 36 32 31 31 30 29 35 35 39 38 37
54 55 54 55 57 57 58 57 58 58 58 58 50 42 36 49 43 44 43 44 51 51 50 50 44 41 38 33 29 31 20 27 26 34 34 32 29 30 33 30 29 30 29 35 36
53 55 55 54 56 57 57 58 58 56 54 51 50 42 43 42 44 43 43 44 50 49 47 43 41 38 37 27 15 24 25 25 25 26 34 31 30 30 29 33 33 34 34 32 34
52 54 55 55 55 57 56 55 50 48 48 42 44 41 42 44 45 43 43 47 48 44 39 41 37 34 36 31 27 29 24 21 24 25 33 32 31 32 33 35 34 34 35 35 34
52 52 55 54 54 54 55 50 48 48 43 47 46 44 44 45 41 42 45 45 43 40 41 37 34 36 38 33 32 30 27 27 30 35 33 32 32 33 33 33 34 33 33 34 36
52 52 54 55 55 52 51 51 51 48 43 45 45 43 43 43 40 41 45 44 38 36 36 33 29 37 37 35 33 31 28 27 28 31 31 27 24 24 25 33 33 34 33 33 36
50 52 52 54 51 50 48 54 52 50 36 38 42 43 43 42 38 42 45 42 39 34 34 32 34 35 33 33 34 30 32 30 32 27 24 28 18 25 23 24 26 28 33 33 36
51 51 52 52 48 46 48 53 52 47 24 37 42 45 43 38 38 40 44 38 37 35 34 24 34 33 32 32 33 30 32 31 32 29 26 26 24 23 21 22 20 28 33 35 36
50 50 51 50 50 47 53 51 47 32 23 34 42 41 39 38 40 41 41 39 38 36 33 30 36 35 33 34 33 34 32 31 30 29 20 26 22 12 11 20 25 33 34 34 33
50 50 50 50 46 49 52 48 32 27 33 34 36 40 37 36 38 38 38 36 32 28 28 32 32 35 36 33 35 33 28 20 20 22 17 23 24 21 21 23 26 29 33 33 32
49 49 49 49 50 50 47 38 26 31 28 34 35 37 34 36 37 37 37 34 35 29 28 26 23 35 37 33 32 31 24 19 8 16 16 25 22 22 26 32 33 33 33 31 31
48 44 44 47 50 49 41 26 30 31 30 33 34 31 32 35 34 36 35 32 34 32 25 25 23 33 35 35 34 32 29 25 23 16 19 22 23 22 27 31 32 32 32 31 30
42 42 40 48 49 46 33 30 32 33 34 34 29 31 28 32 31 32 33 33 33 36 33 29 23 31 34 35 34 33 33 27 22 9 12 17 18 18 20 26 31 31 31 31 31
40 36 39 45 47 39 29 29 33 35 35 30 30 31 28 30 30 31 32 31 34 35 35 31 27 31 34 33 31 32 30 29 26 22 16 13 15 20 23 27 30 32 32 31 31
39 29 40 43 32 32 31 33 36 34 32 31 32 30 30 31 31 30 31 30 33 35 34 31 29 25 31 32 34 32 30 29 23 22 21 20 19 24 25 29 31 32 32 32 32
33 34 44 40 25 29 32 33 34 34 31 30 30 31 31 31 30 31 32 33 34 34 34 34 27 25 26 33 33 33 32 31 28 27 24 20 20 25 28 31 32 31 32 32 32
34 28 34 38 32 28 32 32 32 37 36 29 30 32 31 31 30 31 32 32 35 34 39 35 30 24 20 21 30 31 32 32 30 28 25 24 21 25 26 27 29 30 30 30 29
34 27 26 26 31 30 34 34 32 32 36 32 30 30 30 28 28 29 31 34 35 38 37 36 27 29 28 26 28 29 31 31 30 30 28 26 22 25 26 28 28 28 29 28 28
32 30 33 31 32 30 31 32 32 33 33 30 30 31 30 29 29 28 31 32 32 35 35 36 31 31 25 28 25 26 30 32 32 30 30 30 28 28 27 30 31 32 32 29 27
36 35 33 29 31 31 30 30 34 34 32 30 29 31 28 30 31 32 32 33 34 34 33 32 31 29 25 25 26 22 22 28 30 31 33 30 32 33 31 31 31 31 29 27 22

GFSSW_sfc_dewp_171.txt.gz
Dewpoint
57 58 59 60 60 60 60 61 62 61 60 59 58 55 55 55 53 38 37 51 57 61 56 38 35 39 35 35 36 31 23 29 31 38 38 38 38 41 42 47 46 49 48 50 59
57 57 58 59 59 60 60 60 61 61 60 59 56 54 54 54 44 37 48 59 61 61 42 37 33 37 28 33 35 24 21 20 25 38 37 38 38 38 41 43 43 47 52 57 59
56 57 58 59 59 60 61 60 61 61 60 59 55 53 52 52 31 31 58 57 60 59 50 44 41 37 28 33 33 31 18 21 36 42 43 38 37 37 40 41 42 45 49 57 58
53 55 57 58 59 59 60 60 61 61 60 58 55 53 53 42 31 50 59 58 58 57 47 40 36 29 27 26 35 27 31 33 42 42 39 37 38 35 40 41 40 42 51 57 57
54 54 55 57 58 59 59 60 60 60 60 57 55 53 46 36 26 45 56 53 54 53 42 37 32 30 22 27 35 31 33 41 41 41 40 41 39 36 38 38 41 46 55 56 57
54 55 54 57 57 58 59 60 61 60 59 57 56 54 36 24 38 47 45 52 52 50 46 39 34 34 29 29 29 35 36 38 41 40 39 39 39 38 38 38 44 50 53 55 56
54 55 54 57 57 58 58 59 60 59 58 57 55 47 40 24 45 46 44 49 53 52 44 44 43 35 34 34 40 36 32 33 36 39 38 35 34 36 37 38 42 47 48 50 51
53 55 54 55 57 57 58 58 59 59 58 58 55 42 32 42 45 44 45 45 47 52 51 47 48 40 36 38 34 32 30 24 28 38 37 33 24 35 34 35 37 41 41 42 38
52 53 55 54 56 57 57 58 58 58 58 57 49 39 33 49 42 44 44 44 51 51 51 48 44 41 38 33 29 30 18 27 26 34 36 32 28 31 33 31 34 35 35 37 37
52 53 54 54 55 56 57 58 57 56 54 50 50 39 42 41 44 43 43 48 50 49 47 43 41 38 35 25 15 22 25 25 22 27 35 31 31 31 30 33 32 32 34 33 36
52 52 54 55 54 55 56 56 49 48 46 40 42 40 42 44 45 43 43 49 47 44 39 40 36 33 35 31 25 28 23 21 24 27 33 31 31 31 32 33 33 33 34 35 34
52 52 53 54 55 55 54 51 48 48 42 47 45 44 44 44 41 42 47 45 44 39 40 37 34 36 36 32 29 27 24 25 29 35 33 31 31 32 33 33 34 33 33 34 36
51 52 52 54 55 53 50 48 53 51 42 45 45 43 43 43 40 40 46 44 40 38 36 30 27 37 37 33 31 31 26 27 24 30 30 27 23 24 25 33 33 34 34 34 35
51 52 52 52 51 50 47 50 52 51 35 39 43 43 43 41 38 43 46 42 38 36 35 32 34 36 34 33 32 30 32 30 31 28 22 27 12 26 24 23 25 27 31 34 35
51 50 52 52 49 46 47 51 53 49 25 38 43 46 43 37 38 40 44 38 36 35 34 28 34 34 33 32 34 31 33 31 31 30 28 27 25 25 19 18 23 29 34 35 35
51 51 51 49 50 49 50 52 49 32 25 36 42 40 38 38 39 41 40 38 38 35 32 32 37 34 31 34 33 34 32 30 30 29 20 24 21 14 10 15 24 30 34 34 34
50 50 49 49 44 51 50 45 31 24 34 33 37 39 36 37 38 38 37 35 31 28 29 31 33 36 35 33 34 32 25 19 15 16 11 22 23 22 21 23 26 28 33 33 32
50 49 48 48 50 51 46 35 25 31 31 35 37 37 34 35 36 37 36 33 34 28 29 26 21 35 37 32 32 31 22 16 1 13 13 25 20 19 27 32 33 33 33 32 31
49 44 43 47 50 49 40 26 27 32 33 34 36 32 34 34 34 35 34 33 34 32 25 24 22 34 35 35 33 32 27 24 22 15 19 22 23 22 29 31 32 32 32 31 31
41 40 41 46 49 45 33 30 30 34 35 34 30 33 30 33 32 31 33 33 34 34 32 28 24 32 34 35 34 32 31 26 23 10 12 15 18 16 22 27 31 32 32 31 31
41 33 36 48 45 36 28 30 33 37 38 31 30 32 29 31 31 30 32 31 35 35 33 29 28 32 34 34 32 31 29 28 26 21 15 12 13 20 22 26 30 32 32 32 31
38 25 38 41 31 32 30 32 36 35 37 34 31 30 29 31 31 29 30 29 35 35 33 32 30 28 30 33 34 32 30 28 22 21 21 19 18 25 26 27 30 32 32 32 32
33 34 44 38 22 24 32 33 35 34 34 33 31 30 31 30 29 30 31 34 34 35 34 33 28 21 27 32 33 33 32 30 27 27 24 19 19 24 29 31 32 32 32 32 32
34 28 35 36 28 25 31 32 30 36 35 35 33 32 31 29 31 30 31 32 34 35 39 34 29 23 19 20 29 30 31 31 29 27 25 24 22 25 27 29 30 31 32 30 30
34 24 25 27 29 27 28 34 30 31 35 35 33 32 30 28 30 29 31 33 34 37 36 34 26 27 26 26 30 29 29 30 29 28 27 25 24 24 27 28 29 30 30 29 29
32 30 31 13 29 28 28 29 31 33 34 32 31 32 31 29 29 29 31 32 32 35 34 36 31 29 25 28 26 27 29 30 30 29 29 28 26 26 27 30 29 29 30 31 30
35 33 29 27 30 28 27 29 30 34 35 33 32 31 33 29 31 33 33 33 34 34 33 34 32 29 26 26 26 23 25 28 31 31 30 28 30 33 29 29 31 31 32 32 32

GFSSW_sfc_dewp_174.txt.gz
Dewpoint
58 57 58 59 60 57 58 60 62 62 61 60 58 55 55 54 53 37 37 51 55 61 54 34 31 35 33 36 34 30 30 35 38 39 39 40 40 41 43 46 48 47 44 48 56
56 58 58 58 59 57 58 59 61 61 61 59 56 54 54 53 37 35 52 58 60 60 37 32 28 32 28 31 34 24 22 33 31 39 38 39 40 41 42 44 44 45 50 56 59
53 54 57 58 59 59 57 58 60 61 60 59 54 54 52 49 39 32 57 57 59 57 45 39 36 30 25 30 31 27 19 21 30 39 40 38 37 40 40 42 42 42 48 56 57
53 53 54 56 58 59 59 59 60 61 60 59 55 52 53 39 40 49 58 57 58 54 41 35 30 25 24 24 33 25 28 28 40 42 40 38 38 37 40 40 42 45 48 55 56
53 52 54 55 57 58 59 59 59 60 60 59 55 53 41 31 31 48 55 56 55 48 36 32 27 26 22 24 33 27 33 39 41 41 39 40 38 37 37 40 39 40 48 53 54
53 53 55 54 57 57 59 59 60 59 59 58 55 54 32 32 39 48 45 53 51 45 41 34 29 30 25 27 28 33 37 40 41 39 39 39 38 38 37 38 39 44 46 51 53
50 54 55 54 57 57 58 59 59 59 59 57 56 46 32 33 44 45 44 51 52 48 40 41 39 32 32 32 38 35 31 33 37 39 37 36 36 37 37 38 39 43 47 52 55
48 51 55 54 56 57 58 58 59 58 58 57 54 39 29 41 45 43 43 45 49 52 44 45 44 39 35 38 34 31 29 20 27 38 36 33 20 32 37 37 39 42 47 52 53
51 52 53 54 54 56 57 58 58 58 58 56 46 37 28 49 41 43 42 43 51 51 51 46 43 40 38 31 29 31 17 23 23 34 35 32 24 29 33 33 37 40 44 47 44
51 52 53 55 54 56 57 58 57 55 54 49 48 36 41 40 43 42 43 51 50 49 46 43 41 35 35 26 18 21 20 23 21 26 34 32 30 30 29 32 32 35 38 41 43
51 52 52 54 54 56 56 56 50 48 46 39 38 39 40 44 44 42 45 50 48 43 32 41 30 24 26 28 19 22 22 18 22 29 29 25 28 28 29 31 31 31 33 35 36
52 52 52 53 54 55 54 49 49 49 41 46 43 43 44 44 40 41 48 43 42 33 40 36 23 31 35 29 26 24 19 18 27 34 32 29 29 27 28 29 30 29 29 32 35
51 52 51 52 54 53 51 49 52 51 41 42 44 43 43 43 40 39 47 46 40 38 34 22 26 36 33 31 28 27 20 22 17 30 31 28 13 21 24 31 32 33 32 30 32
51 52 51 52 51 51 49 53 53 52 35 39 41 42 43 42 39 42 46 41 40 36 33 26 35 35 33 29 29 24 30 28 31 26 11 29 -2 19 23 23 24 24 28 32 34
51 51 52 51 49 47 49 52 52 50 27 40 41 45 43 36 39 40 44 39 36 37 35 28 34 35 33 28 33 26 33 31 32 29 27 25 18 12 21 15 22 28 32 34 35
51 51 51 50 50 50 52 52 48 32 26 36 42 40 37 38 40 42 40 40 39 34 32 34 36 35 32 34 34 34 33 32 32 29 23 18 16 2 7 11 23 24 30 35 35
51 51 50 50 45 51 50 44 30 26 36 34 37 39 36 37 38 38 37 34 31 28 27 33 34 37 35 34 34 33 28 27 25 26 10 25 23 11 19 22 26 29 31 34 35
50 50 49 48 51 50 47 35 26 32 32 37 39 37 34 36 36 37 35 31 34 29 27 26 25 35 36 32 32 32 21 17 6 9 11 25 16 15 26 30 33 33 33 34 34
49 47 47 49 51 49 39 29 29 33 34 36 37 35 35 34 35 35 33 31 30 30 22 21 21 36 36 35 32 31 26 23 24 23 22 17 21 23 29 31 32 32 33 33 33
45 41 41 48 50 44 33 32 32 35 36 37 33 35 33 33 33 32 32 32 33 32 31 25 26 34 36 35 35 31 30 27 28 19 17 13 16 8 23 25 31 32 33 33 32
43 37 40 49 45 37 30 32 34 36 37 34 34 35 31 33 31 31 32 33 34 33 32 28 28 33 36 33 29 30 29 28 27 25 15 11 8 19 22 25 28 32 33 32 32
40 32 40 45 33 33 32 34 36 37 37 35 35 31 32 31 32 31 31 30 35 34 30 32 30 29 30 34 34 31 28 27 20 23 24 21 15 24 25 26 30 32 33 33 33
33 36 44 40 28 31 33 33 35 36 35 35 34 35 31 31 31 31 33 33 35 33 31 33 31 28 29 33 33 32 31 29 27 27 24 21 14 24 28 31 30 33 32 33 33
35 31 36 38 32 32 31 33 33 36 36 35 35 36 32 31 32 31 32 33 37 34 39 35 29 25 16 21 27 29 30 31 29 31 22 22 17 23 27 30 32 33 32 31 32
34 32 33 29 30 31 33 33 32 33 35 35 34 34 34 32 31 31 32 33 35 38 37 32 32 26 24 27 29 28 29 31 30 30 25 22 24 24 26 31 31 31 32 30 30
33 31 32 29 31 30 31 31 32 33 34 33 32 31 31 34 31 31 32 32 32 36 35 34 32 30 28 28 27 28 29 30 30 29 28 27 27 28 28 30 31 31 31 30 30
37 36 35 32 32 28 28 28 31 32 34 34 32 33 34 35 35 32 34 34 35 34 33 34 33 33 28 28 29 28 28 28 30 30 29 27 28 30 29 28 29 30 31 31 30

GFSSW_sfc_dewp_180.txt.gz
Dewpoint
53 53 55 57 57 56 56 56 59 61 62 61 59 57 53 53 53 46 50 53 54 60 58 41 35 34 34 40 40 37 31 29 34 37 40 41 41 41 44 44 43 42 45 50 55
54 53 54 54 58 57 56 57 60 60 59 58 57 56 56 55 43 42 54 56 59 60 41 35 34 32 31 36 36 31 28 31 38 39 40 41 40 42 42 43 43 45 47 54 55
53 54 54 54 57 58 56 57 60 60 60 59 59 58 58 51 41 43 58 58 58 57 44 37 34 32 35 34 35 33 26 32 39 43 41 41 41 42 41 41 42 43 46 53 55
53 52 52 54 54 57 57 57 59 59 60 59 59 59 58 45 41 48 59 59 58 54 41 35 32 34 33 31 32 27 25 34 41 42 40 40 40 40 40 41 43 43 46 52 54
51 53 52 52 52 55 58 57 58 59 60 59 58 58 53 45 35 52 58 55 52 45 36 33 31 34 30 29 31 30 29 36 40 40 39 40 39 39 39 40 42 44 47 50 51
49 49 53 52 53 54 56 57 58 59 60 59 57 55 49 44 45 47 49 52 46 39 35 33 31 32 27 28 32 32 34 35 38 38 39 38 36 38 38 39 40 41 45 48 49
48 48 50 53 53 53 57 58 58 59 59 59 57 50 48 44 42 44 47 48 48 38 34 39 38 33 30 34 37 34 33 34 36 36 37 37 32 36 36 38 38 40 41 45 49
51 49 48 51 53 53 55 58 58 58 59 58 55 51 44 48 44 43 42 48 48 43 39 42 39 39 37 37 33 31 30 28 31 37 38 35 23 32 35 36 36 36 40 41 45
52 51 50 50 54 53 55 56 57 58 58 57 51 46 39 47 43 43 41 43 46 43 46 38 39 36 37 31 28 29 23 23 28 34 35 32 25 31 34 35 35 35 35 39 45
52 51 51 50 52 54 55 55 57 57 53 50 45 40 40 33 37 41 41 46 45 47 44 41 37 34 28 28 23 26 22 23 25 29 34 32 30 27 30 33 34 35 35 38 46
52 51 51 51 50 54 54 54 50 47 47 40 38 35 35 37 41 40 42 45 45 41 34 37 31 25 26 25 24 20 21 24 25 28 27 29 28 28 29 30 30 30 34 35 43
51 51 50 50 50 54 53 45 48 49 40 42 42 38 42 40 34 37 45 41 40 32 34 36 30 29 28 26 26 23 20 24 26 31 28 20 21 20 21 21 26 29 28 32 37
51 52 51 51 51 52 49 48 52 51 39 38 40 38 42 40 32 34 45 38 36 32 31 31 27 29 27 27 24 22 19 19 21 28 28 24 20 17 18 23 21 23 25 25 31
50 52 52 51 49 50 47 52 53 50 35 37 40 38 43 43 36 37 45 35 35 30 29 30 30 28 29 26 22 19 19 20 25 16 8 22 8 10 16 21 24 26 28 29 29
51 51 52 52 50 48 50 52 51 46 26 38 40 44 43 37 38 40 45 41 32 28 31 30 29 29 26 21 22 25 26 24 24 23 24 22 16 2 19 18 22 24 30 29 35
51 51 52 49 50 51 50 48 46 32 25 35 40 40 38 39 36 43 40 40 38 33 32 34 36 32 29 27 27 31 31 29 28 26 22 20 16 6 15 12 22 26 30 33 34
51 51 49 49 46 51 49 44 31 27 35 34 37 39 38 36 36 39 36 35 32 27 29 32 33 35 35 32 33 32 26 24 20 18 17 21 16 11 14 18 24 27 31 34 36
50 50 48 48 51 49 45 36 27 31 33 36 39 38 36 35 35 36 33 31 32 25 27 27 24 33 34 31 31 30 23 25 14 21 16 22 13 16 27 30 31 32 33 35 35
49 48 48 49 50 47 38 30 31 33 36 36 38 35 35 34 35 34 33 30 30 23 23 23 27 34 34 34 32 30 26 28 22 21 19 21 18 16 27 27 30 32 33 34 35
45 43 44 49 49 45 33 30 32 37 37 38 33 35 32 34 32 32 32 31 29 28 28 22 27 32 34 35 34 30 26 19 23 11 10 3 13 11 25 27 31 32 33 34 34
42 38 45 49 46 39 31 31 33 37 37 35 32 33 36 34 32 32 32 30 29 30 28 24 29 32 34 32 29 31 25 26 27 26 19 15 12 17 22 28 30 32 34 34 34
42 32 45 47 34 32 32 33 36 37 37 36 36 34 34 34 32 32 30 29 29 28 30 30 30 28 29 34 34 30 25 25 22 23 22 23 18 21 23 25 28 32 34 34 34
34 37 45 44 28 30 33 34 35 35 35 35 34 35 35 34 33 32 32 32 32 29 29 32 30 25 28 31 33 32 28 29 24 25 23 20 16 25 26 27 28 30 33 34 34
36 31 36 39 37 32 29 32 33 37 35 35 35 35 35 34 37 35 32 34 35 32 38 35 30 26 21 23 30 29 30 30 28 24 20 20 16 22 24 26 30 31 34 33 33
36 32 33 28 30 33 32 32 30 32 36 36 34 34 34 32 32 35 33 34 37 38 34 33 26 25 26 26 28 28 28 30 28 27 21 19 18 19 22 26 30 30 34 33 32
33 31 35 31 32 30 31 30 30 31 33 32 32 32 34 34 36 34 35 33 36 37 33 32 30 28 25 28 28 27 27 28 29 28 27 25 24 24 24 24 30 31 34 32 31
39 38 38 32 31 28 27 30 30 31 33 34 33 31 33 34 37 38 37 36 35 34 32 31 30 25 21 27 27 21 26 28 27 28 28 26 27 29 28 27 27 32 33 32 31

GFSSW_sfc_dewp_183.txt.gz
Dewpoint
51 53 53 54 57 57 58 57 57 60 59 59 60 58 57 56 53 51 55 56 55 60 59 46 38 34 33 37 36 32 27 27 35 37 39 40 40 43 45 42 43 45 47 52 57
50 53 54 54 56 57 57 57 58 60 59 58 58 56 56 53 50 47 57 59 58 58 45 38 32 32 31 34 32 27 24 32 39 39 40 41 41 42 42 43 44 50 54 56 57
50 53 53 53 55 56 56 57 59 59 60 59 59 58 58 57 48 46 60 58 59 57 50 39 34 34 31 37 29 26 23 31 41 43 41 41 41 42 43 42 43 51 53 55 56
50 52 53 52 53 54 57 57 58 60 60 59 59 58 58 52 44 52 60 57 60 54 46 35 32 31 30 28 31 22 32 37 42 41 40 39 40 40 40 41 43 51 54 54 55
50 49 53 52 53 54 55 57 58 59 60 60 59 57 54 46 40 53 57 56 53 50 38 35 31 30 27 29 28 27 33 39 40 39 39 39 38 38 39 41 45 50 53 54 55
51 49 48 52 53 53 54 57 57 58 59 59 57 55 50 41 49 43 49 53 52 45 35 32 30 29 25 30 30 33 36 38 38 38 38 36 37 38 38 40 43 47 51 52 54
52 51 49 49 53 53 54 56 57 58 59 58 57 53 48 43 45 43 44 49 49 44 34 36 36 30 30 33 36 35 33 34 36 37 37 36 31 34 36 39 39 41 45 49 51
51 52 49 49 51 52 54 55 57 58 58 58 56 52 45 52 50 48 44 44 49 44 39 41 39 37 35 35 32 29 29 25 32 36 37 28 20 33 36 35 36 39 40 42 48
51 52 50 50 51 52 53 55 56 57 58 57 52 49 43 51 50 48 45 43 47 44 46 39 39 36 35 29 27 29 21 25 29 34 35 27 22 32 34 35 35 36 35 40 43
51 51 51 50 51 54 53 55 56 56 54 51 49 43 41 40 48 47 46 41 45 47 42 40 36 32 30 27 21 24 23 22 25 28 34 32 29 28 30 33 33 34 35 36 44
51 51 51 50 50 53 53 53 47 46 48 43 41 38 40 39 46 47 47 43 46 44 34 36 29 27 25 27 23 22 22 21 27 28 32 31 30 30 30 29 30 32 34 35 44
51 51 50 50 50 52 52 45 47 48 40 42 42 41 41 40 37 43 48 44 42 36 36 32 28 28 28 26 24 21 19 24 30 31 23 22 20 22 23 27 29 29 29 32 42
51 51 51 50 51 52 49 48 52 49 40 39 41 43 41 40 35 39 45 45 40 35 34 29 28 32 28 26 23 21 19 21 25 29 28 24 18 21 21 23 23 28 29 29 40
51 51 51 52 48 50 47 52 52 51 35 36 39 41 43 40 36 38 46 40 38 34 32 31 29 29 28 25 23 20 20 25 22 13 11 20 12 12 15 18 22 22 23 25 27
51 51 51 51 47 46 49 51 50 46 24 38 38 44 43 37 38 41 45 41 33 31 31 30 28 29 28 25 22 22 25 25 23 21 17 21 11 11 16 17 21 24 28 32 35
50 51 51 48 48 51 51 49 46 32 24 35 41 40 38 38 37 42 42 40 38 33 33 32 36 32 29 29 29 31 29 29 29 26 19 17 4 2 14 15 22 28 31 33 35
50 50 49 49 46 50 50 43 30 25 35 33 36 38 37 36 37 36 37 35 32 27 27 31 33 34 34 30 32 30 23 19 14 12 7 21 15 4 12 20 25 29 32 34 36
50 50 48 50 49 49 45 36 25 30 32 37 38 36 36 37 38 36 34 32 33 29 29 26 22 32 33 32 30 28 18 17 2 16 14 21 17 15 23 29 31 32 33 35 35
49 46 45 49 48 46 39 29 28 32 36 36 38 35 35 36 37 35 32 31 32 27 24 24 28 34 34 34 31 29 25 24 20 18 17 18 18 16 27 28 30 31 33 34 35
45 43 45 49 48 41 33 29 32 36 37 38 33 36 32 35 33 34 32 31 31 29 26 28 27 33 34 34 33 29 26 17 19 1 2 6 12 4 24 26 29 31 32 34 35
41 37 43 48 44 36 25 26 33 37 38 35 32 33 36 35 33 32 32 31 30 29 28 29 29 32 33 32 29 30 23 23 21 22 13 11 9 14 18 25 29 31 33 34 34
39 31 44 47 32 32 29 33 37 37 38 36 36 34 35 34 33 31 31 30 30 30 27 29 31 30 30 34 33 31 25 26 15 16 21 20 13 21 25 29 30 31 33 34 34
33 34 41 40 20 23 32 34 36 36 36 35 34 36 36 34 34 33 32 33 30 30 29 32 28 26 27 26 32 31 28 25 25 25 21 13 7 26 27 26 28 32 34 34 34
34 26 30 36 35 25 29 30 31 36 34 35 35 36 35 34 35 35 32 36 32 31 37 34 31 24 20 22 29 30 30 29 27 19 21 20 18 21 24 25 27 30 34 34 34
33 29 29 27 30 30 29 30 30 31 35 36 34 35 34 32 32 34 34 34 36 37 34 30 23 25 26 28 29 27 29 27 27 26 20 18 19 19 22 24 26 31 33 33 33
32 31 33 27 29 28 29 25 29 32 34 33 32 34 35 33 32 32 36 37 36 37 34 33 26 27 23 27 28 26 27 29 27 27 28 25 23 22 22 24 28 31 33 33 33
38 37 31 26 25 24 22 28 30 32 34 33 33 32 33 35 38 39 39 39 38 36 35 32 28 20 14 26 23 19 24 27 28 29 27 25 26 28 27 27 28 30 32 33 32

GFSSW_sfc_dewp_186.txt.gz
Dewpoint
53 51 51 54 54 55 58 58 57 60 59 58 58 57 58 58 59 60 58 58 57 59 60 47 39 36 39 37 36 33 28 27 34 38 38 39 41 44 44 42 45 47 52 54 58
52 50 52 53 54 55 57 58 59 60 59 58 58 58 58 56 55 55 60 60 61 59 46 40 33 33 34 34 33 25 25 30 39 39 39 41 43 43 42 44 49 53 54 58 59
51 50 51 53 54 54 54 57 57 59 59 59 58 58 58 57 54 54 59 60 61 58 51 45 36 34 30 35 30 28 24 35 40 43 41 41 42 42 42 43 48 53 55 57 57
52 50 50 54 54 54 54 56 57 58 59 60 59 58 57 54 46 55 59 60 59 55 51 38 35 31 28 29 30 24 36 37 42 41 41 40 41 41 41 42 47 54 56 56 57
51 51 50 51 53 53 54 54 57 58 60 59 57 56 53 47 46 51 59 58 55 52 46 37 31 30 29 28 29 27 37 39 39 39 39 39 39 39 40 42 50 55 56 56 56
51 52 50 49 49 53 54 55 56 58 59 57 57 56 50 43 52 46 50 54 52 52 41 34 31 30 28 29 27 33 38 38 38 37 37 37 37 38 39 44 52 54 54 55 56
49 50 51 49 49 52 54 54 56 57 59 57 57 54 49 45 53 51 49 49 53 50 45 36 34 30 32 32 35 36 34 34 36 36 34 34 34 36 37 43 50 52 53 54 55
49 50 51 49 49 52 54 55 56 57 59 58 56 52 46 54 55 51 49 43 49 52 49 38 39 38 35 33 31 28 28 22 31 36 36 25 22 27 35 40 43 45 50 51 53
50 51 51 49 50 52 54 54 55 57 58 57 52 49 44 54 51 50 47 42 44 47 49 39 38 36 34 28 26 27 23 24 31 35 34 23 17 32 35 35 37 38 40 43 49
50 51 50 50 50 52 54 54 55 54 57 51 50 43 47 46 51 49 46 43 43 44 44 41 36 32 31 25 21 24 21 25 27 29 33 30 25 28 30 34 34 35 35 35 39
50 51 50 50 50 51 53 53 47 47 48 44 43 40 42 47 50 50 48 45 46 41 33 40 31 26 28 26 24 24 21 22 26 28 32 30 28 28 29 29 29 31 33 35 41
50 50 50 50 50 51 52 45 47 48 41 45 42 40 43 45 44 47 50 44 43 36 35 31 32 28 28 27 23 21 22 25 29 30 24 24 25 27 26 29 29 29 30 33 45
50 51 50 50 51 50 48 47 52 49 40 41 42 40 41 42 41 45 47 46 41 35 34 27 29 30 26 26 23 21 23 24 23 29 25 21 18 19 20 23 26 29 29 30 44
50 50 51 50 47 49 47 51 52 50 35 37 39 42 41 41 39 46 48 45 41 37 33 31 29 30 28 25 23 21 22 26 27 17 17 23 20 13 13 17 21 22 28 29 41
51 50 51 50 48 46 48 51 50 47 25 37 38 45 41 38 39 40 48 45 39 38 33 30 29 29 28 26 24 24 27 22 21 23 16 20 13 10 13 14 17 21 23 28 32
50 50 51 48 48 51 51 49 46 32 24 34 40 40 37 38 38 40 43 45 41 38 36 35 36 33 27 29 26 30 26 27 28 23 16 15 13 5 10 12 18 26 31 34 35
50 50 48 49 45 50 50 44 31 25 35 33 36 38 37 37 37 37 38 38 35 31 32 35 32 34 34 29 31 26 22 16 13 13 14 20 11 9 5 15 20 27 31 34 37
50 49 49 49 51 49 45 35 24 30 32 37 38 36 36 38 36 34 35 35 34 30 29 26 26 31 33 31 28 22 20 16 11 12 10 20 14 15 24 27 29 31 32 35 36
49 44 45 49 50 47 38 27 27 32 36 37 37 34 35 38 37 32 35 33 32 29 27 25 27 33 34 34 29 26 22 21 21 17 18 17 16 16 28 28 30 32 33 34 35
43 40 43 49 48 41 33 29 31 36 37 36 32 36 32 35 35 34 32 33 32 29 26 27 26 32 33 33 32 27 26 19 19 6 6 4 14 5 23 24 27 29 32 33 35
40 33 42 48 43 35 25 28 33 38 38 34 32 33 35 35 34 32 32 31 31 31 27 30 29 30 31 30 28 27 21 20 21 18 10 7 6 13 15 24 25 28 31 33 34
35 26 42 44 31 32 30 33 36 36 37 35 34 34 36 35 35 32 31 30 31 29 26 31 31 29 28 32 32 30 24 24 14 13 20 18 9 21 23 22 27 28 31 33 34
33 32 41 38 22 26 30 33 36 35 36 35 34 36 37 34 33 32 33 32 31 28 29 32 29 26 24 26 31 30 29 25 23 23 19 12 3 24 28 27 30 30 32 34 34
29 22 29 33 33 25 26 28 30 36 34 36 35 37 35 33 35 34 33 36 33 31 37 34 29 23 19 20 29 29 29 27 24 19 19 15 12 22 24 25 26 31 33 34 34
30 25 21 26 25 30 29 29 31 30 35 35 34 35 32 30 31 33 34 35 35 37 34 29 25 25 25 24 28 26 27 26 26 21 16 16 17 17 22 24 25 28 33 34 34
29 28 31 26 28 27 28 26 29 31 33 31 31 33 35 31 31 31 34 37 34 36 32 32 25 26 22 27 27 25 27 27 26 26 24 25 20 21 21 22 25 28 31 33 33
37 34 29 23 23 23 21 28 30 32 33 33 33 33 33 34 37 38 38 39 38 34 32 31 27 19 14 26 23 18 23 28 27 25 26 24 25 27 27 27 25 27 31 33 33